Temperature
24 24 24 23 21 21 24 26 27 27 26 27 27 26 25 24 23 21 21 21 22 21 21 20 20 20 20 20 20 20 19 19 19 19 19 19 19 19 19 19 19 18 18 18 18 18 18 18 18
25 24 24 23 21 22 25 26 27 27 26 27 26 26 25 23 22 21 21 21 22 21 21 21 20 20 20 20 20 19 19 19 19 19 19 19 19 19 19 18 18 18 18 18 18 18 18 18 18
25 25 24 21 22 22 25 27 27 27 27 27 26 26 25 23 22 22 22 22 22 21 21 21 20 20 20 20 20 19 19 19 19 19 19 19 19 19 18 18 18 18 18 18 18 18 18 18 18
25 25 24 21 23 25 26 27 27 27 27 26 26 25 24 23 23 23 22 22 22 21 21 21 20 20 20 20 20 19 19 19 19 19 19 19 18 18 18 18 18 18 18 18 18 18 18 18 17
25 24 22 22 24 26 27 28 28 27 26 25 25 24 23 23 24 23 22 22 22 21 21 21 20 20 20 20 19 19 19 19 19 19 19 19 18 18 18 18 18 18 18 18 18 18 18 18 17
25 23 22 22 24 27 28 28 28 26 25 25 24 23 22 23 23 22 22 22 22 22 21 21 20 20 20 20 19 19 19 19 19 19 19 18 18 18 18 18 18 18 18 18 18 18 18 18 17
25 22 22 24 25 27 28 29 27 26 25 25 25 23 22 21 23 22 22 22 22 22 21 21 20 20 20 20 19 19 19 19 19 19 18 18 18 18 18 18 18 18 18 18 18 18 18 17 17
27 22 23 24 26 27 29 29 28 27 26 26 25 23 22 21 22 22 21 21 21 21 21 21 20 20 20 20 19 19 19 19 19 19 18 18 18 18 18 18 18 18 18 18 18 18 18 18 17
27 22 23 25 27 28 29 28 28 27 26 26 26 25 23 22 22 21 21 21 21 21 21 21 20 20 20 20 19 19 19 19 19 18 18 18 18 18 18 18 18 18 18 18 18 18 18 18 17
27 22 25 27 28 29 29 29 28 26 25 24 25 24 23 22 22 21 21 21 21 20 21 20 20 20 20 20 19 19 19 19 19 18 18 18 18 18 18 18 18 18 18 18 18 18 18 18 17
27 25 27 29 30 30 30 29 28 26 24 24 24 23 23 22 22 21 21 21 21 21 20 20 20 20 20 20 19 19 19 19 19 18 18 18 18 18 18 18 18 18 18 18 18 18 18 18 17
28 28 29 30 31 31 30 29 28 27 27 27 26 25 23 23 22 22 21 21 21 21 21 20 20 20 20 20 19 19 19 19 19 18 18 18 18 18 18 18 18 18 18 18 18 18 18 18 17
28 28 30 30 31 31 30 29 28 27 27 26 25 24 24 23 22 22 22 21 21 21 20 20 20 20 20 19 19 19 19 19 19 18 18 18 18 18 18 18 18 18 18 18 18 18 18 18 17
28 28 29 30 30 30 29 28 27 27 27 25 24 24 24 23 23 22 21 21 21 20 20 20 19 19 19 19 19 19 19 19 19 18 18 18 18 18 18 18 18 18 18 18 18 18 18 18 17
29 27 27 29 30 30 29 27 27 27 26 25 24 24 24 23 23 22 22 22 21 21 20 20 20 19 19 19 19 19 19 19 19 19 18 18 18 18 18 18 18 18 18 18 18 17 17 17 17
26 26 26 27 29 29 28 26 27 27 26 24 24 23 23 23 23 22 22 22 21 21 20 20 20 19 19 19 19 19 19 19 19 19 18 18 18 18 18 18 18 18 18 18 18 18 17 17 17
25 25 26 27 29 29 27 26 27 26 26 24 24 23 23 23 22 22 22 22 21 21 20 20 20 19 19 19 19 19 19 18 18 19 18 18 18 18 18 18 18 18 18 18 18 18 18 18 17
24 25 26 27 29 29 27 26 26 27 26 24 23 23 22 22 22 22 22 21 21 20 20 20 19 19 19 19 19 18 18 18 18 18 18 18 18 18 18 18 18 18 18 18 18 18 18 18 18
25 26 26 27 29 28 27 26 26 26 26 24 23 22 22 22 22 22 22 21 21 20 20 20 19 19 19 19 19 18 18 18 18 18 18 18 18 18 18 18 18 18 18 18 18 18 18 18 17
26 26 26 27 28 28 27 26 26 25 25 24 23 22 22 22 22 21 21 21 21 20 20 20 19 19 19 19 19 19 19 18 18 18 18 18 18 18 18 18 18 18 18 18 18 18 18 18 18
26 26 27 27 27 27 26 25 24 25 25 24 24 23 23 23 22 21 21 21 20 20 20 19 19 19 19 19 19 18 18 18 18 18 18 18 18 18 18 18 18 18 18 18 18 18 18 18 18
26 27 28 28 26 24 25 23 23 23 23 23 23 23 23 22 22 22 21 21 20 20 20 19 19 19 19 18 18 18 18 18 18 18 18 18 18 18 18 18 18 18 18 18 18 18 18 18 18
27 28 28 28 26 24 23 23 22 23 23 22 22 23 23 23 23 22 22 21 21 20 20 19 19 19 18 18 18 18 18 18 18 18 18 18 18 18 18 18 18 18 18 18 18 18 18 18 18
28 27 25 22 21 22 23 23 22 21 22 23 23 23 23 22 22 22 21 21 20 20 19 19 19 19 18 18 18 18 18 18 18 18 18 18 18 18 18 18 18 18 18 18 18 18 18 18 18
27 23 22 22 20 21 22 23 22 23 23 23 23 23 22 22 22 22 21 21 20 20 19 19 19 18 18 18 18 18 18 18 18 18 18 18 18 18 18 18 18 18 18 18 18 18 18 18 18
26 22 21 22 22 21 22 23 23 24 24 25 24 23 22 22 22 22 22 21 21 20 19 19 19 18 18 18 18 18 17 17 18 18 18 18 18 18 18 18 18 18 17 17 17 17 17 17 17
26 23 21 20 21 21 21 23 23 24 24 23 23 22 21 22 22 22 22 21 21 20 19 19 19 19 18 18 18 18 17 17 17 18 18 18 18 18 18 17 17 17 17 17 17 17 17 17 17
26 24 20 21 21 21 22 23 22 23 23 22 21 21 21 21 21 21 21 21 20 20 19 19 19 19 18 18 18 18 18 17 17 17 17 17 17 17 17 17 17 17 17 17 17 17 17 17 17
26 25 22 19 19 20 21 21 23 22 22 22 22 22 22 22 21 21 21 21 20 20 19 19 19 18 18 18 18 18 18 17 17 17 17 17 17 17 17 17 17 17 17 17 17 17 17 17 17
26 25 21 22 21 19 20 21 23 22 22 22 22 22 22 22 22 22 21 20 20 20 19 19 19 18 18 18 18 18 18 17 17 17 17 17 17 17 17 17 17 17 17 17 17 17 16 16 16
Wind_Speed
7 4 2 1 4 5 2 4 7 9 7 6 9 10 8 5 5 6 6 16 19 16 18 21 21 21 21 20 20 19 19 18 18 17 17 17 17 17 16 16 15 15 14 14 14 15 15 15 15
3 2 1 3 5 4 2 4 8 10 10 10 10 10 9 7 8 11 9 17 20 18 19 20 22 22 21 20 20 19 18 18 17 16 16 17 16 16 16 15 15 15 14 14 14 14 14 14 15
3 1 3 4 2 2 1 3 10 10 10 9 6 6 6 7 10 8 12 20 18 15 18 21 23 23 22 21 20 19 18 17 16 16 16 16 16 15 15 15 15 14 14 14 14 14 14 14 14
1 3 4 4 3 5 4 3 8 9 7 7 8 6 4 4 8 13 20 20 18 13 18 22 23 23 22 21 20 19 18 17 16 16 15 15 15 15 15 15 15 14 14 14 14 13 13 13 12
3 4 5 4 5 3 2 6 9 9 6 6 9 6 4 4 17 22 21 20 19 14 16 21 23 22 22 21 20 19 18 17 16 16 15 15 15 15 15 15 14 14 14 14 13 13 12 12 11
3 4 4 4 5 3 1 5 9 11 10 9 9 7 3 10 19 19 18 18 18 17 15 20 22 22 21 20 19 18 18 17 16 15 15 15 14 14 14 14 14 14 13 13 12 12 11 10 10
4 3 2 4 4 2 2 5 10 11 10 7 8 7 5 11 17 18 17 17 16 15 14 15 19 20 21 20 19 18 18 17 16 15 15 14 14 14 14 14 13 13 13 12 11 11 10 9 8
5 4 1 3 3 3 1 3 8 12 8 7 7 9 9 12 16 16 15 14 14 13 12 11 15 16 17 18 19 18 17 16 16 15 15 14 14 14 13 13 13 12 12 11 10 9 8 7 7
4 3 4 4 3 3 3 6 4 6 9 4 3 6 13 19 19 17 15 14 13 13 10 10 11 13 15 15 17 17 17 16 15 15 15 13 12 12 12 12 12 12 11 10 9 8 7 6 6
5 4 8 6 4 2 4 7 8 6 7 5 7 11 17 18 20 20 19 18 16 15 13 11 11 11 13 13 13 13 13 13 13 12 13 11 11 10 10 12 12 11 10 9 8 7 6 5 5
5 7 8 6 5 2 3 4 6 10 5 8 14 18 18 17 17 18 18 18 17 16 15 12 11 12 11 8 11 9 10 11 11 12 12 11 9 8 9 9 9 9 8 6 6 5 4 4 4
4 8 7 5 3 1 2 3 4 5 8 12 18 20 17 17 16 18 17 15 15 16 15 14 12 11 10 10 9 9 8 8 8 11 12 10 7 7 8 7 7 7 6 5 5 3 3 2 3
6 6 7 6 4 2 3 3 6 5 11 15 18 18 17 15 13 13 15 15 15 15 15 15 13 11 9 8 8 9 8 8 10 11 12 12 8 5 6 6 7 7 7 6 5 4 4 3 3
6 8 10 8 6 2 3 2 5 6 14 17 17 15 15 15 13 12 13 13 13 14 14 13 13 12 11 9 7 7 9 10 10 10 12 14 12 8 6 5 6 7 8 8 7 6 4 3 3
6 8 11 7 5 2 4 2 4 10 15 16 16 14 13 12 12 13 15 15 15 14 14 14 14 12 12 10 8 7 9 10 8 10 13 13 13 11 8 5 5 6 8 8 6 4 3 2 3
7 6 5 8 4 3 6 4 5 10 16 15 15 14 12 10 11 11 12 13 13 14 13 14 14 12 11 9 7 6 7 8 8 10 11 13 13 13 10 5 5 8 8 6 3 3 3 2 2
5 4 7 9 5 2 4 4 6 10 15 14 14 13 12 10 9 9 11 12 13 14 14 12 11 11 10 9 6 6 6 6 7 9 10 11 12 13 10 6 5 8 6 4 4 3 3 3 3
6 5 6 7 6 1 3 5 5 9 14 15 13 12 12 12 11 11 10 11 12 12 12 11 10 10 8 6 5 4 4 4 6 7 9 11 11 12 10 6 6 7 4 4 3 3 2 2 3
8 8 10 10 5 1 2 4 5 7 10 12 11 11 11 11 10 10 10 11 11 10 11 11 10 9 8 5 5 5 4 4 4 5 9 11 11 11 9 5 5 5 5 5 5 4 3 2 2
8 8 8 8 6 2 1 0 3 5 10 14 16 14 13 10 9 10 10 10 10 11 10 10 10 10 9 7 5 4 4 3 4 4 6 10 11 11 9 6 5 5 5 5 5 4 3 1 2
9 6 6 6 6 7 4 5 3 2 3 8 12 13 13 15 14 12 11 10 10 10 11 11 10 10 9 8 5 4 3 2 2 3 4 6 10 11 9 8 5 5 5 5 5 5 5 3 1
8 9 5 3 4 5 3 1 6 3 2 6 8 10 12 12 12 10 10 10 10 9 9 9 9 9 8 8 8 8 7 6 6 5 5 5 8 9 10 9 7 6 5 6 6 5 4 5 3
9 8 2 2 2 3 4 2 6 1 3 6 10 11 12 12 13 12 11 10 8 8 8 8 8 8 8 9 10 9 7 5 4 5 6 5 5 6 9 9 7 6 5 6 6 5 5 4 4
5 3 8 7 5 3 4 3 6 5 9 10 10 11 11 11 11 10 8 8 7 7 7 8 8 8 8 9 9 9 9 7 7 6 7 5 4 4 6 7 6 5 5 5 5 5 6 4 4
2 6 5 6 5 5 5 2 7 8 8 10 12 11 11 11 12 11 10 9 9 8 8 8 8 7 7 8 8 9 9 9 9 7 7 6 5 4 6 6 5 5 5 5 5 5 5 5 5
5 10 8 5 5 6 5 2 6 5 3 7 9 11 10 10 10 11 11 10 9 9 8 8 8 7 7 7 7 7 8 6 5 6 6 6 6 6 6 6 6 6 6 6 5 4 4 4 4
7 6 10 8 2 2 5 4 5 2 7 9 10 11 11 10 9 9 10 10 10 9 8 8 8 6 7 7 7 6 7 7 6 6 5 5 5 5 6 6 7 6 6 6 6 4 4 4 4
10 9 7 6 4 3 4 4 5 5 7 9 10 12 10 9 9 8 8 9 8 8 7 7 7 7 6 7 7 6 6 6 6 5 6 6 6 6 6 7 7 6 6 6 6 4 4 5 3
5 6 6 6 7 6 3 7 7 9 10 10 11 11 11 11 10 9 8 8 8 7 7 7 6 5 5 6 6 6 5 5 5 5 5 5 5 5 6 6 6 6 6 6 6 5 5 5 4
8 9 9 6 5 6 5 7 6 8 9 9 9 10 11 11 11 9 8 7 7 7 7 7 6 6 5 6 6 6 6 5 5 4 4 4 4 5 5 6 6 7 7 6 7 6 5 5 5
Wind_Direction
260 241 184 90 44 36 56 95 97 78 64 72 85 94 98 92 128 141 134 137 134 139 143 141 138 135 132 128 125 122 119 116 114 112 111 110 110 111 111 113 116 118 120 120 121 121 120 118 118
266 252 113 50 60 34 10 98 90 96 109 103 87 87 81 71 93 112 124 139 137 139 140 141 139 137 134 131 128 126 123 120 118 116 115 114 113 113 112 114 116 118 120 121 122 123 123 122 122
268 302 72 56 61 180 235 101 111 108 109 102 93 73 83 110 118 128 142 140 134 136 139 142 141 138 136 134 132 130 127 124 122 120 118 118 117 116 115 116 117 119 121 122 123 124 124 124 123
9 36 45 54 296 238 187 177 130 115 93 86 97 73 62 119 132 137 139 138 133 132 138 142 141 139 139 137 135 133 131 128 126 123 122 121 120 119 119 119 119 121 123 125 125 126 126 126 124
74 69 39 346 295 269 195 176 133 118 114 101 95 89 50 54 119 133 140 139 136 136 139 142 142 141 141 140 139 137 135 133 130 128 126 124 122 122 121 121 121 123 125 125 126 128 128 126 124
44 57 47 318 301 295 218 150 117 108 113 110 105 103 75 124 127 137 139 139 139 140 140 143 144 144 144 143 142 141 139 137 135 133 130 128 127 126 124 124 124 124 127 128 129 130 130 128 123
121 99 199 264 293 307 160 138 123 124 128 138 131 107 115 140 140 141 139 137 138 140 140 142 145 146 146 146 145 145 144 142 140 138 136 134 132 130 129 128 128 128 130 133 135 135 133 128 122
146 110 274 274 282 282 182 110 123 125 128 136 132 134 155 160 142 136 132 133 136 140 142 141 144 146 147 149 150 150 148 146 144 143 141 139 136 135 134 133 134 134 135 137 138 139 136 129 121
120 89 256 236 227 252 136 109 99 101 114 117 125 138 150 146 140 136 132 134 140 145 146 145 145 146 147 150 155 154 152 152 150 149 148 143 137 138 140 142 141 142 142 141 141 142 140 128 113
129 172 233 224 207 197 144 133 138 122 106 92 93 113 135 142 146 147 149 152 155 156 158 157 154 151 153 155 151 153 153 154 152 154 151 148 149 152 152 153 150 149 148 146 148 149 145 124 104
191 214 249 263 250 188 122 135 135 132 135 154 142 143 147 149 152 156 158 159 163 162 163 165 164 160 161 151 152 154 153 156 159 162 163 163 163 163 156 155 154 153 152 150 155 156 153 140 120
268 268 265 265 286 28 107 132 112 143 165 157 147 148 153 155 159 163 162 164 164 166 169 169 170 166 162 155 161 163 161 167 171 176 173 165 158 157 160 160 163 162 163 165 170 170 168 159 148
300 297 298 294 321 335 105 109 124 127 133 139 143 147 155 159 160 160 160 163 165 168 170 171 168 168 162 159 169 170 171 177 180 178 177 170 161 162 167 172 177 182 180 176 176 185 199 205 180
294 312 317 313 318 310 124 122 120 150 138 140 148 157 163 163 156 153 159 163 166 169 168 166 165 166 163 168 172 171 175 178 177 176 178 174 167 166 166 168 179 188 186 181 180 190 191 188 168
324 328 322 304 294 239 111 44 170 158 142 148 156 164 165 162 159 164 169 170 171 170 166 164 165 162 166 170 175 171 172 172 174 177 177 176 172 168 165 160 175 187 182 175 174 180 168 160 158
343 343 312 291 285 245 125 204 215 161 148 155 162 165 165 163 168 167 169 167 167 163 162 167 167 163 165 164 160 154 162 165 173 178 178 178 175 169 162 163 177 180 171 163 158 158 150 158 161
344 309 289 299 284 225 133 192 192 168 154 158 165 165 165 160 164 167 169 162 163 162 162 166 162 163 162 157 151 146 154 162 172 175 174 174 172 169 163 168 176 170 160 161 172 153 153 161 174
265 286 301 298 293 127 151 188 187 168 157 161 162 160 162 164 173 172 163 157 159 160 160 160 158 160 154 148 138 135 140 161 170 172 172 169 170 169 164 167 170 158 148 158 157 148 147 154 166
257 283 292 287 294 66 153 176 189 165 152 153 155 160 164 168 171 162 155 154 152 155 158 159 158 161 156 156 159 159 164 166 169 181 178 174 174 170 164 166 165 158 161 173 164 144 143 146 135
265 280 291 301 321 13 81 168 197 177 167 165 164 166 166 161 162 161 159 159 163 165 166 163 164 166 169 170 167 164 158 172 175 182 183 183 179 174 172 162 166 166 160 159 159 146 140 161 148
277 263 271 291 335 11 56 2 340 322 134 162 161 161 163 167 168 168 166 168 167 172 174 173 170 174 177 169 152 143 130 125 152 176 182 187 182 181 175 169 163 166 164 169 174 162 152 165 186
268 262 262 319 15 317 53 305 292 284 147 157 161 162 171 171 166 166 170 174 177 180 176 169 170 174 178 172 169 166 173 179 185 180 183 184 184 184 178 174 170 167 168 173 181 171 159 151 173
236 249 276 354 58 356 360 118 280 308 182 186 178 174 175 172 170 173 177 177 173 171 171 169 169 177 181 180 179 175 181 184 169 166 175 183 190 191 180 176 170 166 169 176 176 164 162 160 167
241 16 22 39 63 343 277 167 262 227 203 191 182 176 172 169 168 169 168 166 168 167 169 171 172 181 182 181 178 178 180 177 169 175 181 186 192 195 184 176 172 171 171 175 178 172 168 168 160
82 83 26 355 6 259 281 198 247 253 208 183 178 174 167 164 165 167 167 173 173 172 173 175 176 183 182 180 182 182 181 180 183 185 186 185 190 195 198 185 177 178 184 181 174 168 174 171 165
190 140 158 197 228 278 323 260 267 271 154 143 154 152 158 163 168 171 174 175 174 173 173 178 181 184 183 181 184 179 176 179 188 189 186 189 196 200 195 188 183 183 182 184 175 171 177 171 175
179 178 172 149 191 289 288 288 317 41 107 129 142 146 163 165 167 171 170 173 168 167 172 174 176 180 183 182 175 174 176 182 189 189 187 193 198 200 191 188 188 189 185 178 167 170 177 168 173
173 160 103 120 162 247 283 258 224 204 160 151 149 164 169 157 160 169 170 170 163 162 164 166 166 174 174 170 174 177 179 183 183 183 191 194 198 194 181 185 188 189 182 170 157 156 162 155 164
167 149 129 135 155 158 234 269 229 198 184 167 169 171 164 159 162 167 170 164 155 149 151 159 159 156 159 167 169 166 167 168 170 180 189 188 189 183 179 178 180 178 173 166 155 156 153 154 154
184 180 152 160 213 169 174 262 268 191 178 162 162 163 162 162 164 161 156 152 149 154 157 162 165 163 168 169 165 164 164 166 169 179 186 181 178 179 175 173 175 177 170 162 154 157 157 151 151
Height
1512 1510 1509 1509 1511 1520 1519 1508 1500 1501 1502 1502 1501 1503 1506 1510 1515 1524 1521 1523 1526 1529 1533 1536 1538 1540 1542 1543 1544 1546 1547 1548 1549 1550 1550 1551 1552 1553 1554 1554 1555 1556 1557 1558 1559 1560 1561 1562 1562
1512 1510 1511 1511 1521 1533 1521 1506 1503 1503 1503 1503 1504 1505 1507 1511 1513 1516 1519 1524 1527 1530 1533 1536 1539 1541 1543 1544 1546 1547 1548 1549 1550 1551 1552 1552 1553 1554 1555 1556 1556 1557 1558 1559 1560 1561 1563 1563 1564
1512 1511 1512 1515 1526 1531 1520 1506 1502 1502 1503 1502 1505 1507 1510 1513 1514 1516 1520 1525 1528 1531 1534 1537 1540 1542 1544 1545 1547 1548 1549 1550 1551 1552 1553 1554 1555 1555 1556 1557 1558 1558 1559 1561 1562 1563 1564 1565 1566
1513 1513 1514 1521 1525 1515 1508 1504 1500 1502 1504 1503 1505 1510 1512 1515 1515 1517 1521 1525 1528 1532 1535 1538 1540 1542 1544 1546 1548 1549 1550 1551 1552 1553 1554 1555 1556 1557 1557 1558 1559 1560 1561 1562 1564 1565 1566 1567 1568
1513 1514 1521 1527 1521 1508 1501 1500 1499 1501 1504 1506 1506 1511 1515 1516 1517 1519 1522 1526 1529 1532 1535 1538 1541 1543 1545 1547 1548 1550 1551 1552 1553 1554 1555 1556 1557 1558 1559 1560 1560 1561 1563 1564 1565 1567 1568 1569 1570
1515 1516 1529 1532 1519 1506 1500 1499 1499 1502 1505 1507 1508 1513 1518 1518 1518 1521 1524 1528 1530 1532 1535 1538 1541 1544 1546 1547 1549 1551 1552 1553 1554 1556 1557 1558 1558 1559 1560 1561 1562 1563 1564 1566 1567 1568 1570 1571 1572
1517 1521 1528 1525 1518 1507 1501 1499 1499 1502 1505 1507 1508 1513 1519 1520 1521 1523 1526 1529 1531 1534 1536 1538 1541 1544 1546 1548 1549 1551 1553 1554 1555 1557 1558 1559 1560 1561 1562 1563 1564 1565 1566 1567 1569 1570 1572 1573 1574
1515 1520 1525 1522 1516 1508 1500 1499 1499 1500 1504 1506 1507 1511 1517 1520 1521 1524 1527 1530 1532 1534 1537 1539 1541 1544 1546 1548 1550 1552 1553 1555 1556 1558 1559 1560 1561 1562 1563 1564 1565 1567 1568 1569 1570 1572 1573 1575 1576
1514 1523 1528 1519 1511 1504 1499 1499 1502 1502 1502 1505 1506 1508 1512 1518 1521 1524 1527 1529 1532 1535 1537 1539 1541 1544 1546 1548 1550 1552 1554 1555 1557 1558 1560 1561 1562 1563 1564 1566 1567 1568 1569 1570 1572 1573 1575 1576 1577
1512 1524 1516 1504 1500 1499 1497 1497 1500 1504 1505 1506 1508 1510 1514 1517 1520 1522 1524 1526 1530 1534 1536 1539 1541 1543 1546 1548 1550 1552 1554 1556 1557 1559 1560 1562 1563 1564 1566 1567 1568 1569 1571 1572 1573 1574 1576 1577 1579
1508 1511 1503 1498 1496 1495 1496 1497 1498 1501 1505 1505 1506 1510 1514 1517 1520 1521 1522 1525 1529 1533 1535 1538 1541 1543 1545 1548 1550 1552 1554 1556 1558 1559 1561 1562 1564 1565 1567 1568 1569 1571 1572 1573 1574 1576 1577 1579 1580
1506 1502 1499 1496 1495 1494 1494 1496 1498 1498 1500 1502 1504 1508 1513 1516 1518 1520 1522 1525 1528 1531 1534 1537 1540 1542 1545 1547 1550 1552 1554 1556 1558 1560 1561 1563 1564 1566 1567 1569 1570 1572 1573 1574 1575 1577 1578 1579 1581
1503 1500 1496 1493 1493 1493 1493 1494 1496 1498 1499 1503 1506 1509 1512 1516 1518 1520 1522 1524 1527 1530 1533 1536 1538 1541 1544 1547 1549 1551 1554 1556 1558 1560 1561 1563 1565 1566 1568 1569 1571 1572 1574 1575 1576 1577 1579 1580 1581
1502 1499 1495 1491 1490 1491 1492 1494 1495 1499 1500 1503 1507 1509 1512 1515 1518 1520 1521 1523 1525 1528 1531 1534 1537 1540 1543 1546 1548 1551 1553 1556 1558 1559 1561 1563 1565 1566 1568 1570 1571 1573 1574 1575 1577 1578 1579 1580 1581
1501 1500 1495 1490 1489 1490 1492 1498 1496 1497 1499 1503 1506 1508 1511 1514 1517 1518 1519 1521 1523 1527 1530 1533 1536 1539 1542 1545 1548 1550 1553 1555 1557 1559 1561 1563 1565 1566 1568 1570 1571 1573 1574 1575 1577 1578 1579 1581 1582
1502 1505 1509 1493 1488 1489 1496 1507 1496 1497 1498 1502 1505 1507 1510 1513 1515 1517 1519 1520 1522 1525 1528 1531 1535 1537 1540 1544 1547 1549 1552 1555 1557 1559 1560 1562 1564 1566 1568 1569 1571 1572 1574 1575 1577 1578 1579 1580 1582
1513 1518 1512 1499 1486 1487 1494 1501 1494 1497 1497 1500 1504 1506 1509 1512 1514 1516 1517 1519 1521 1524 1527 1530 1533 1536 1539 1542 1545 1548 1551 1553 1556 1558 1560 1562 1564 1566 1567 1569 1570 1572 1573 1575 1576 1578 1579 1580 1581
1523 1518 1511 1504 1489 1488 1494 1496 1493 1495 1495 1498 1502 1505 1508 1510 1512 1514 1516 1519 1521 1524 1526 1529 1531 1535 1538 1541 1543 1546 1549 1552 1554 1556 1559 1561 1563 1565 1567 1568 1570 1571 1573 1574 1575 1577 1578 1580 1581
1511 1513 1512 1501 1488 1490 1494 1496 1494 1494 1496 1499 1502 1504 1506 1508 1511 1513 1516 1518 1520 1523 1525 1527 1530 1533 1536 1538 1540 1543 1546 1549 1552 1555 1558 1560 1562 1564 1565 1567 1568 1570 1571 1573 1575 1576 1577 1579 1580
1507 1511 1508 1498 1488 1490 1496 1497 1493 1492 1493 1495 1498 1501 1504 1507 1509 1512 1515 1517 1519 1521 1523 1526 1528 1530 1533 1536 1538 1541 1544 1548 1550 1553 1556 1558 1560 1562 1564 1565 1567 1569 1570 1572 1573 1574 1576 1577 1579
1504 1507 1504 1501 1493 1492 1497 1506 1501 1495 1494 1496 1497 1499 1501 1503 1506 1510 1513 1515 1518 1520 1522 1524 1526 1528 1531 1533 1536 1539 1542 1546 1548 1551 1553 1556 1558 1560 1562 1564 1566 1567 1569 1570 1571 1573 1574 1576 1577
1508 1494 1494 1496 1505 1514 1506 1527 1510 1501 1498 1497 1498 1499 1500 1502 1505 1508 1511 1514 1516 1519 1521 1523 1524 1526 1529 1531 1533 1536 1538 1541 1544 1547 1551 1554 1556 1558 1560 1562 1564 1565 1567 1568 1570 1571 1573 1574 1575
1495 1488 1490 1494 1504 1515 1512 1523 1518 1503 1502 1498 1496 1496 1498 1501 1504 1507 1510 1512 1515 1517 1519 1521 1523 1524 1526 1528 1530 1533 1536 1540 1543 1546 1549 1551 1554 1556 1558 1560 1562 1563 1565 1567 1568 1569 1571 1572 1574
1484 1489 1496 1506 1516 1530 1517 1521 1521 1506 1498 1494 1493 1494 1497 1499 1503 1506 1509 1511 1513 1516 1518 1519 1521 1522 1524 1526 1528 1530 1533 1537 1540 1543 1546 1548 1551 1553 1555 1557 1559 1561 1563 1564 1566 1567 1569 1570 1572
1487 1510 1532 1534 1542 1537 1516 1517 1515 1492 1487 1488 1490 1492 1495 1498 1501 1504 1507 1509 1512 1514 1516 1518 1519 1520 1522 1524 1526 1528 1531 1534 1537 1540 1543 1545 1548 1550 1552 1554 1556 1558 1560 1562 1563 1565 1566 1568 1569
1491 1506 1533 1544 1545 1535 1518 1519 1504 1486 1484 1486 1489 1493 1497 1499 1501 1503 1505 1508 1510 1513 1514 1516 1517 1518 1520 1522 1524 1526 1529 1532 1535 1538 1540 1542 1545 1547 1549 1551 1553 1555 1557 1559 1560 1562 1564 1565 1566
1489 1499 1503 1523 1528 1535 1527 1512 1497 1486 1485 1488 1490 1494 1497 1499 1501 1503 1505 1507 1509 1511 1513 1515 1516 1517 1518 1520 1522 1525 1527 1530 1532 1535 1537 1539 1542 1544 1546 1548 1550 1552 1554 1555 1557 1559 1561 1562 1563
1476 1485 1507 1522 1536 1542 1528 1518 1512 1495 1491 1489 1491 1495 1497 1498 1500 1503 1505 1506 1508 1511 1512 1514 1515 1516 1517 1519 1521 1523 1525 1528 1530 1533 1534 1536 1538 1540 1542 1544 1546 1548 1550 1552 1554 1556 1558 1559 1560
1479 1485 1498 1516 1523 1536 1538 1524 1490 1488 1486 1488 1489 1491 1494 1496 1499 1501 1504 1506 1508 1510 1512 1513 1514 1515 1517 1518 1520 1522 1524 1526 1528 1530 1532 1533 1535 1537 1539 1541 1542 1544 1546 1549 1551 1553 1555 1556 1557
1471 1478 1493 1512 1517 1522 1529 1518 1480 1480 1481 1484 1487 1490 1492 1496 1498 1500 1504 1506 1508 1510 1512 1513 1514 1515 1516 1517 1519 1521 1523 1524 1526 1528 1529 1531 1532 1534 1535 1537 1539 1541 1543 1545 1547 1550 1551 1553 1555